| time (UTC) | temp F | wind direction | speed MPH | gust MPH | rain 1hr in | rain 24hr in | rain mn in | humidity % | barometer mb |
| 20260508054531 | 53 | 51 | 0.0 | 2.0 | 0.01 | 0.04 | 0.01 | 81 | 1012.2 |
| 20260508053028 | 53 | 51 | 0.0 | 0.0 | 0.01 | 0.04 | 0.01 | 81 | 1012.3 |
| 20260508051532 | 53 | 51 | 0.0 | 0.0 | 0.00 | 0.03 | 0.00 | 80 | 1012.2 |
| 20260508050024 | 53 | 51 | 0.0 | 0.0 | 0.00 | 0.03 | 0.00 | 80 | 1012.2 |
| 20260508044527 | 54 | 51 | 0.0 | 0.0 | 0.00 | 0.03 | 0.00 | 81 | 1012.1 |
| 20260508043023 | 54 | 51 | 0.0 | 0.0 | 0.00 | 0.03 | 0.00 | 81 | 1012.0 |
| 20260508041521 | 54 | 51 | 0.0 | 2.0 | 0.00 | 0.03 | 0.00 | 80 | 1012.1 |
| 20260508040020 | 54 | 51 | 0.0 | 1.0 | 0.00 | 0.03 | 0.03 | 81 | 1012.0 |
| 20260508034519 | 54 | 51 | 0.0 | 2.0 | 0.00 | 0.03 | 0.03 | 81 | 1011.9 |
| 20260508033021 | 54 | 51 | 0.0 | 3.0 | 0.00 | 0.03 | 0.03 | 81 | 1011.5 |
| 20260508031518 | 54 | 51 | 0.0 | 2.0 | 0.00 | 0.03 | 0.03 | 80 | 1011.3 |
| 20260508030017 | 54 | 51 | 0.0 | 0.0 | 0.00 | 0.03 | 0.03 | 80 | 1011.3 |
| 20260508024531 | 54 | 51 | 0.0 | 0.0 | 0.00 | 0.03 | 0.03 | 80 | 1011.1 |
| 20260508023023 | 54 | 51 | 0.0 | 0.0 | 0.00 | 0.03 | 0.03 | 80 | 1010.9 |
| 20260508021515 | 54 | 51 | 0.0 | 0.0 | 0.00 | 0.03 | 0.03 | 80 | 1010.8 |
| 20260508020014 | 54 | 54 | 0.0 | 1.0 | 0.00 | 0.03 | 0.03 | 79 | 1010.5 |
| 20260508014513 | 54 | 54 | 0.0 | 2.0 | 0.00 | 0.03 | 0.03 | 79 | 1010.5 |
| 20260508013012 | 54 | 54 | 0.0 | 0.0 | 0.00 | 0.03 | 0.03 | 79 | 1010.3 |
| 20260508011511 | 54 | 53 | 0.0 | 3.0 | 0.00 | 0.03 | 0.03 | 79 | 1009.9 |
| 20260508010012 | 54 | 57 | 1.0 | 3.0 | 0.00 | 0.03 | 0.03 | 78 | 1009.7 |
| 20260508004509 | 54 | 57 | 0.0 | 2.0 | 0.00 | 0.03 | 0.03 | 77 | 1009.8 |
| 20260508003010 | 54 | 57 | 0.0 | 3.0 | 0.01 | 0.03 | 0.03 | 76 | 1009.8 |
| 20260508001508 | 54 | 55 | 1.0 | 4.0 | 0.01 | 0.03 | 0.03 | 75 | 1010.1 |
| 20260508000008 | 55 | 67 | 0.0 | 3.0 | 0.01 | 0.03 | 0.03 | 74 | 1009.2 |
| 20260507234510 | 55 | 65 | 1.0 | 6.0 | 0.01 | 0.03 | 0.03 | 74 | 1008.4 |
| 20260507233015 | 55 | 33 | 2.0 | 7.0 | 0.00 | 0.02 | 0.02 | 74 | 1008.8 |
| 20260507231505 | 55 | 99 | 2.0 | 11.0 | 0.00 | 0.02 | 0.02 | 74 | 1008.8 |
| 20260507230006 | 55 | 13 | 3.0 | 9.0 | 0.00 | 0.02 | 0.02 | 74 | 1008.4 |
| 20260507224506 | 55 | 49 | 4.0 | 10.0 | 0.00 | 0.02 | 0.02 | 74 | 1008.4 |
| 20260507223004 | 56 | 69 | 5.0 | 8.0 | 0.00 | 0.02 | 0.02 | 73 | 1008.1 |
| 20260507221507 | 55 | 24 | 3.0 | 7.0 | 0.00 | 0.02 | 0.02 | 74 | 1008.0 |
| 20260507220004 | 55 | 43 | 4.0 | 8.0 | 0.00 | 0.02 | 0.02 | 74 | 1008.1 |
| 20260507214502 | 54 | 67 | 2.0 | 12.0 | 0.00 | 0.02 | 0.02 | 75 | 1008.3 |
| 20260507213000 | 55 | 10 | 6.0 | 13.0 | 0.00 | 0.02 | 0.02 | 75 | 1007.8 |
| 20260507211614 | 55 | 325 | 8.0 | 14.0 | 0.00 | 0.02 | 0.02 | 75 | 1007.9 |
| 20260507204555 | 57 | 61 | 9.0 | 16.0 | 0.00 | 0.02 | 0.02 | 75 | 1007.3 |
| 20260507203105 | 57 | 32 | 7.0 | 12.0 | 0.00 | 0.02 | 0.02 | 78 | 1007.2 |
| 20260507201559 | 57 | 355 | 5.0 | 12.0 | 0.00 | 0.02 | 0.02 | 78 | 1007.2 |
| 20260507200105 | 57 | 22 | 4.0 | 10.0 | 0.00 | 0.02 | 0.02 | 78 | 1007.2 |
| 20260507194548 | 58 | 34 | 4.0 | 12.0 | 0.00 | 0.02 | 0.02 | 79 | 1007.0 |
| 20260507193049 | 58 | 60 | 5.0 | 11.0 | 0.00 | 0.02 | 0.02 | 78 | 1007.0 |
| 20260507191544 | 58 | 351 | 6.0 | 13.0 | 0.00 | 0.02 | 0.02 | 76 | 1006.8 |
| 20260507190041 | 60 | 24 | 3.0 | 14.0 | 0.01 | 0.02 | 0.02 | 76 | 1007.1 |
| 20260507184536 | 61 | 17 | 7.0 | 13.0 | 0.01 | 0.02 | 0.02 | 75 | 1006.0 |
| 20260507183034 | 64 | 46 | 4.0 | 11.0 | 0.01 | 0.02 | 0.02 | 74 | 1006.6 |
| 20260507181532 | 67 | 47 | 5.0 | 12.0 | 0.01 | 0.02 | 0.02 | 72 | 1005.8 |
| 20260507180034 | 71 | 211 | 2.0 | 6.0 | 0.00 | 0.01 | 0.01 | 73 | 1006.0 |
| 20260507174526 | 70 | 213 | 2.0 | 5.0 | 0.00 | 0.01 | 0.01 | 73 | 1006.7 |
| 20260507173031 | 70 | 232 | 3.0 | 6.0 | 0.00 | 0.01 | 0.01 | 74 | 1006.5 |
| 20260507171523 | 70 | 198 | 1.0 | 6.0 | 0.00 | 0.01 | 0.01 | 75 | 1006.2 |
| 20260507170022 | 69 | 207 | 2.0 | 4.0 | 0.00 | 0.01 | 0.01 | 77 | 1006.1 |
| 20260507164524 | 69 | 194 | 1.0 | 5.0 | 0.00 | 0.01 | 0.01 | 79 | 1006.4 |
| 20260507163016 | 68 | 238 | 2.0 | 7.0 | 0.00 | 0.01 | 0.01 | 79 | 1007.0 |
| 20260507161519 | 68 | 229 | 3.0 | 6.0 | 0.00 | 0.01 | 0.01 | 79 | 1007.5 |
| 20260507160016 | 68 | 254 | 4.0 | 9.0 | 0.00 | 0.01 | 0.01 | 79 | 1007.8 |
| 20260507154515 | 68 | 260 | 3.0 | 6.0 | 0.00 | 0.01 | 0.01 | 80 | 1007.5 |
| 20260507153014 | 68 | 242 | 1.0 | 4.0 | 0.00 | 0.01 | 0.01 | 80 | 1006.9 |
| 20260507151514 | 67 | 233 | 1.0 | 6.0 | 0.01 | 0.01 | 0.01 | 81 | 1007.2 |
| 20260507150021 | 67 | 219 | 3.0 | 7.0 | 0.01 | 0.01 | 0.01 | 80 | 1007.5 |
| 20260507144520 | 67 | 231 | 4.0 | 11.0 | 0.01 | 0.01 | 0.01 | 81 | 1007.9 |
| 20260507143009 | 67 | 198 | 4.0 | 14.0 | 0.01 | 0.01 | 0.01 | 80 | 1007.9 |
| 20260507141507 | 67 | 209 | 3.0 | 8.0 | 0.00 | 0.00 | 0.00 | 80 | 1008.1 |
| 20260507140008 | 67 | 229 | 3.0 | 7.0 | 0.00 | 0.00 | 0.00 | 80 | 1008.2 |
| 20260507134510 | 67 | 240 | 3.0 | 5.0 | 0.00 | 0.00 | 0.00 | 80 | 1008.1 |
| 20260507133005 | 67 | 229 | 2.0 | 6.0 | 0.00 | 0.00 | 0.00 | 80 | 1008.1 |
| 20260507131506 | 67 | 227 | 2.0 | 5.0 | 0.00 | 0.00 | 0.00 | 80 | 1008.2 |
| 20260507130005 | 67 | 230 | 2.0 | 5.0 | 0.00 | 0.00 | 0.00 | 81 | 1008.0 |
| 20260507124505 | 67 | 220 | 2.0 | 8.0 | 0.00 | 0.00 | 0.00 | 81 | 1008.0 |
| 20260507123007 | 67 | 196 | 3.0 | 7.0 | 0.00 | 0.00 | 0.00 | 81 | 1008.1 |
| 20260507121502 | 66 | 210 | 2.0 | 8.0 | 0.00 | 0.00 | 0.00 | 81 | 1008.2 |
| 20260507120002 | 66 | 209 | 1.0 | 7.0 | 0.00 | 0.00 | 0.00 | 81 | 1008.5 |
| 20260507114501 | 66 | 231 | 2.0 | 7.0 | 0.00 | 0.00 | 0.00 | 81 | 1008.5 |
| 20260507113002 | 66 | 192 | 2.0 | 5.0 | 0.00 | 0.00 | 0.00 | 81 | 1008.7 |
| 20260507111603 | 66 | 232 | 1.0 | 5.0 | 0.00 | 0.00 | 0.00 | 81 | 1008.6 |
| 20260507110101 | 66 | 204 | 2.0 | 6.0 | 0.00 | 0.00 | 0.00 | 81 | 1008.7 |
| 20260507104600 | 66 | 207 | 2.0 | 6.0 | 0.00 | 0.00 | 0.00 | 81 | 1008.4 |
| 20260507103059 | 66 | 225 | 2.0 | 4.0 | 0.00 | 0.00 | 0.00 | 81 | 1008.5 |
| 20260507101612 | 66 | 205 | 2.0 | 6.0 | 0.00 | 0.00 | 0.00 | 81 | 1008.3 |
| 20260507094605 | 65 | 187 | 3.0 | 5.0 | 0.00 | 0.00 | 0.00 | 81 | 1008.2 |
| 20260507093057 | 65 | 232 | 2.0 | 7.0 | 0.00 | 0.00 | 0.00 | 81 | 1008.4 |
| 20260507091557 | 65 | 183 | 2.0 | 7.0 | 0.00 | 0.00 | 0.00 | 81 | 1008.3 |
| 20260507090100 | 65 | 184 | 2.0 | 4.0 | 0.00 | 0.00 | 0.00 | 81 | 1008.4 |
| 20260507084601 | 65 | 195 | 0.0 | 7.0 | 0.00 | 0.00 | 0.00 | 81 | 1008.7 |
| 20260507083055 | 65 | 213 | 1.0 | 6.0 | 0.00 | 0.00 | 0.00 | 81 | 1008.7 |
| 20260507081554 | 65 | 196 | 2.0 | 6.0 | 0.00 | 0.00 | 0.00 | 81 | 1009.2 |
| 20260507080114 | 65 | 214 | 0.0 | 3.0 | 0.00 | 0.00 | 0.00 | 81 | 1009.0 |
| 20260507074551 | 65 | 194 | 0.0 | 2.0 | 0.00 | 0.00 | 0.00 | 80 | 1009.1 |
| 20260507073055 | 65 | 194 | 1.0 | 4.0 | 0.00 | 0.00 | 0.00 | 80 | 1009.3 |
| 20260507071549 | 65 | 190 | 0.0 | 3.0 | 0.00 | 0.00 | 0.00 | 80 | 1009.1 |
| 20260507070048 | 65 | 185 | 0.0 | 3.0 | 0.00 | 0.00 | 0.00 | 80 | 1009.6 |
| 20260507064547 | 64 | 185 | 0.0 | 0.0 | 0.00 | 0.00 | 0.00 | 79 | 1009.8 |
| 20260507063048 | 64 | 185 | 0.0 | 0.0 | 0.00 | 0.00 | 0.00 | 78 | 1009.8 |
| 20260507061545 | 64 | 185 | 0.0 | 0.0 | 0.00 | 0.00 | 0.00 | 78 | 1010.3 |
| 20260507060044 | 65 | 185 | 0.0 | 0.0 | 0.00 | 0.00 | 0.00 | 77 | 1010.6 |